User: anonymous   Login
Location: Kalberh�ni
(46.4610°N, 7.2453°E)
Time: 20:06:17
(UTC+00:00)
Language:

Cosmos 2237 Rocket - Orbit

View from above orbital plane
View from above orbital plane
View from above satellite
View from above satellite

Ground track
Ground track

The orbit data is extracted from the following two-line orbital elements,

1 22566U 93016B   21271.46266754 -.00000251  00000-0 -10517-3 0  9990
2 22566  71.0106  23.3462 0012891 273.5675  86.3973 14.14978054472534
Epoch (UTC): 28 September 2021 11:06:14
Eccentricity: 0.0012891
inclination: 71.0106°
perigee height: 833 km
apogee height: 851 km
right ascension of ascending node: 23.3462°
argument of perigee: 273.5675°
revolutions per day: 14.14978054
mean anomaly at epoch: 86.3973°
orbit number at epoch: 47253

The dashed part of the orbit path shows where the satellite is in the earth's shadow,  

DLR